Weather History for Warroad, MN

Change the Weather History Date:

Saturday, March 2, 2013

  Actual Average Record
Temperature  
Mean Temperature 10 °F -  
Max Temperature 28 °F 26 °F 42 °F (1990)
Min Temperature -7 °F 2 °F -31 °F (1950)
Degree Days  
Heating Degree Days 54    
Moisture  
Dew Point 2 °F    
Average Humidity 63    
Maximum Humidity 77    
Minimum Humidity 52    
Precipitation  
Precipitation 0.00 in - - ()
Sea Level Pressure  
Sea Level Pressure 30.21 in    
Wind  
Wind Speed 2 mph (East)    
Max Wind Speed 7 mph    
Max Gust Speed -    
Visibility 10 miles    
Events      
Averages and records for this station are not official NWS values.
T = Trace of Precipitation, MM = Missing Value Source: NWS Daily Summary

Daily Weather History Graph

Daily Weather History Graph

Search for Another Location

Airport:

Trip Planner

Search our weather history database for the weather conditions in past years. The results will help you decide how hot, cold, wet, or windy it might be!

Date:

Astronomy

Mar. 02, 2013 Rise Set
Actual Time 7:00 AM CST 6:06 PM CST
Civil Twilight 6:29 AM CST 6:38 PM CST
Nautical Twilight 5:52 AM CST 7:15 PM CST
Astronomical Twilight 5:15 AM CST 7:52 PM CST
Moon No Moon Rise 8:59 AM CST (3/2)
Length of Visible Light 12h 09m
Length of Day
11h 06m
Waning Gibbous, 74% of the Moon is Illuminated
Mar 2
Waning Gibbous
Mar 4
Last Quarter
Mar 11
New
Mar 19
First Quarter
Mar 27
Full

Hourly Weather History & Observations

Time (CST) Temp. Windchill Dew Point Humidity Pressure Visibility Wind Dir Wind Speed Gust Speed Precip Events Conditions
12:13 AM -0.4 °F - -7.6 °F 72% 30.33 in 10.0 mi Calm Calm - N/A   Clear
12:34 AM -2.2 °F - -9.4 °F 71% 30.33 in 10.0 mi Calm Calm - N/A   Clear
12:54 AM -2.2 °F - -9.4 °F 71% 30.33 in 10.0 mi Calm Calm - N/A   Clear
1:13 AM -5.8 °F - -11.2 °F 77% 30.33 in 10.0 mi Calm Calm - N/A   Clear
1:34 AM -4.0 °F - -11.2 °F 71% 30.33 in 10.0 mi Calm Calm - N/A   Clear
1:54 AM -5.8 °F - -11.2 °F 77% 30.33 in 10.0 mi Calm Calm - N/A   Clear
2:13 AM -5.8 °F -14.5 °F -11.2 °F 77% 30.32 in 10.0 mi ENE 3.5 mph - N/A   Clear
2:34 AM -5.8 °F -14.5 °F -13.0 °F 71% 30.31 in 10.0 mi East 3.5 mph - N/A   Clear
2:53 AM -5.8 °F - -14.8 °F 65% 30.31 in 10.0 mi Calm Calm - N/A   Clear
3:14 AM -5.8 °F - -14.8 °F 65% 30.31 in 10.0 mi Calm Calm - N/A   Clear
3:34 AM -5.8 °F -14.5 °F -14.8 °F 65% 30.30 in 10.0 mi ENE 3.5 mph - N/A   Clear
3:54 AM -5.8 °F - -14.8 °F 65% 30.30 in 10.0 mi Calm Calm - N/A   Clear
4:14 AM -5.8 °F -14.5 °F -14.8 °F 65% 30.30 in 10.0 mi ENE 3.5 mph - N/A   Clear
4:34 AM -5.8 °F -14.5 °F -14.8 °F 65% 30.30 in 10.0 mi ENE 3.5 mph - N/A   Clear
4:54 AM -5.8 °F -14.5 °F -14.8 °F 65% 30.30 in 10.0 mi ENE 3.5 mph - N/A   Clear
5:14 AM -7.6 °F - -14.8 °F 71% 30.29 in 10.0 mi Calm Calm - N/A   Clear
5:34 AM -5.8 °F -14.5 °F -14.8 °F 65% 30.29 in 10.0 mi ENE 3.5 mph - N/A   Clear
5:54 AM -5.8 °F - -14.8 °F 65% 30.28 in 10.0 mi Calm Calm - N/A   Clear
6:34 AM -5.8 °F -16.7 °F -14.8 °F 65% 30.27 in 10.0 mi East 4.6 mph - N/A   Clear
6:54 AM -5.8 °F -14.5 °F -14.8 °F 65% 30.27 in 10.0 mi East 3.5 mph - N/A   Clear
7:14 AM -7.6 °F - -14.8 °F 71% 30.27 in 10.0 mi Calm Calm - N/A   Clear
7:34 AM -5.8 °F - -14.8 °F 65% 30.26 in 10.0 mi Calm Calm - N/A   Clear
7:54 AM -5.8 °F - -14.8 °F 65% 30.26 in 10.0 mi Calm Calm - N/A   Clear
8:14 AM -4.0 °F - -11.2 °F 71% 30.26 in 10.0 mi Calm Calm - N/A   Clear
8:33 AM 3.2 °F - -9.4 °F 56% 30.26 in 10.0 mi Calm Calm - N/A   Clear
8:54 AM 5.0 °F - -7.6 °F 56% 30.25 in 10.0 mi Calm Calm - N/A   Clear
9:14 AM 6.8 °F - -7.6 °F 52% 30.25 in 10.0 mi Calm Calm - N/A   Clear
9:33 AM 8.6 °F - -5.8 °F 52% 30.25 in 10.0 mi Calm Calm - N/A   Clear
9:54 AM 10.4 °F - -4.0 °F 52% 30.24 in 10.0 mi Calm Calm - N/A   Clear
10:14 AM 12.2 °F - -2.2 °F 53% 30.24 in 10.0 mi Calm Calm - N/A   Scattered Clouds
10:34 AM 12.2 °F - -0.4 °F 57% 30.24 in 10.0 mi Calm Calm - N/A   Clear
10:54 AM 14.0 °F - -0.4 °F 53% 30.23 in 10.0 mi Calm Calm - N/A   Clear
11:13 AM 15.8 °F - 1.4 °F 53% 30.24 in 10.0 mi Calm Calm - N/A   Clear
11:34 AM 15.8 °F 7.2 °F 3.2 °F 58% 30.23 in 10.0 mi NE 5.8 mph - N/A   Clear
11:53 AM 17.6 °F 9.3 °F 3.2 °F 53% 30.23 in 10.0 mi NE 5.8 mph - N/A   Clear
12:14 PM 17.6 °F 9.3 °F 5.0 °F 58% 30.23 in 10.0 mi NE 5.8 mph - N/A   Clear
12:34 PM 19.4 °F 12.8 °F 6.8 °F 58% 30.22 in 10.0 mi NE 4.6 mph - N/A   Clear
12:54 PM 19.4 °F 11.5 °F 8.6 °F 63% 30.21 in 10.0 mi NE 5.8 mph - N/A   Clear
1:14 PM 19.4 °F 14.3 °F 8.6 °F 63% 30.20 in 10.0 mi NE 3.5 mph - N/A   Clear
1:34 PM 19.4 °F - 8.6 °F 63% 30.20 in 10.0 mi Calm Calm - N/A   Clear
1:54 PM 21.2 °F - 10.4 °F 63% 30.19 in 10.0 mi Calm Calm - N/A   Clear
2:14 PM 23.0 °F - 10.4 °F 59% 30.18 in 10.0 mi Calm Calm - N/A   Clear
2:34 PM 26.6 °F - 12.2 °F 55% 30.16 in 10.0 mi Calm Calm - N/A   Clear
2:54 PM 26.6 °F - 12.2 °F 55% 30.16 in 10.0 mi Calm Calm - N/A   Clear
3:13 PM 26.6 °F - 12.2 °F 55% 30.15 in 10.0 mi Calm Calm - N/A   Scattered Clouds
3:34 PM 28.4 °F - 14.0 °F 55% 30.15 in 10.0 mi Calm Calm - N/A   Scattered Clouds
3:54 PM 26.6 °F - 15.8 °F 64% 30.14 in 10.0 mi Calm Calm - N/A   Scattered Clouds
4:13 PM 28.4 °F 24.6 °F 15.8 °F 59% 30.14 in 10.0 mi South 3.5 mph - N/A   Scattered Clouds
4:34 PM 28.4 °F - 15.8 °F 59% 30.14 in 10.0 mi Calm Calm - N/A   Scattered Clouds
4:54 PM 26.6 °F - 15.8 °F 64% 30.14 in 10.0 mi Calm Calm - N/A   Scattered Clouds
5:13 PM 26.6 °F 22.6 °F 15.8 °F 64% 30.14 in 10.0 mi East 3.5 mph - N/A   Mostly Cloudy
5:34 PM 26.6 °F - 15.8 °F 64% 30.14 in 10.0 mi Calm Calm - N/A   Overcast
5:54 PM 26.6 °F 21.2 °F 15.8 °F 64% 30.14 in 10.0 mi East 4.6 mph - N/A   Overcast
6:14 PM 26.6 °F 22.6 °F 15.8 °F 64% 30.14 in 10.0 mi East 3.5 mph - N/A   Overcast
6:34 PM 24.8 °F 17.9 °F 15.8 °F 69% 30.14 in 10.0 mi SE 5.8 mph - N/A   Overcast
6:54 PM 26.6 °F 19.1 °F 14.0 °F 59% 30.13 in 10.0 mi SE 6.9 mph - N/A   Overcast
7:14 PM 26.6 °F 19.1 °F 12.2 °F 55% 30.13 in 10.0 mi SE 6.9 mph - N/A   Overcast
7:33 PM 26.6 °F 19.1 °F 14.0 °F 59% 30.13 in 10.0 mi SE 6.9 mph - N/A   Overcast
7:54 PM 26.6 °F 20.0 °F 14.0 °F 59% 30.12 in 10.0 mi SE 5.8 mph - N/A   Overcast
8:14 PM 26.6 °F 20.0 °F 14.0 °F 59% 30.12 in 10.0 mi SE 5.8 mph - N/A   Overcast
8:33 PM 24.8 °F 20.5 °F 12.2 °F 59% 30.11 in 10.0 mi ESE 3.5 mph - N/A   Overcast
8:54 PM 24.8 °F 19.1 °F 12.2 °F 59% 30.11 in 10.0 mi ESE 4.6 mph - N/A   Overcast
9:13 PM 24.8 °F 19.1 °F 12.2 °F 59% 30.11 in 10.0 mi ESE 4.6 mph - N/A   Overcast
9:34 PM 24.8 °F 20.5 °F 14.0 °F 64% 30.11 in 10.0 mi ESE 3.5 mph - N/A   Overcast
9:54 PM 24.8 °F 20.5 °F 14.0 °F 64% 30.10 in 10.0 mi ESE 3.5 mph - N/A   Overcast
10:14 PM 24.8 °F 20.5 °F 14.0 °F 64% 30.10 in 10.0 mi SE 3.5 mph - N/A   Overcast
10:34 PM 24.8 °F 20.5 °F 14.0 °F 64% 30.10 in 10.0 mi ESE 3.5 mph - N/A   Overcast
10:54 PM 24.8 °F 19.1 °F 15.8 °F 69% 30.09 in 10.0 mi SE 4.6 mph - N/A   Overcast
11:13 PM 23.0 °F 18.4 °F 15.8 °F 74% 30.09 in 10.0 mi SSE 3.5 mph - N/A   Overcast
11:34 PM 23.0 °F 18.4 °F 15.8 °F 74% 30.08 in 10.0 mi ESE 3.5 mph - N/A   Overcast
11:54 PM 23.0 °F 17.0 °F 15.8 °F 74% 30.07 in 10.0 mi SE 4.6 mph - N/A   Overcast